Location: McFarlands Corners
(41.4117°N, 81.3382°W)
Time: 07:14:49
(UTC+00:00)

Tiros 1 - Pass Details

Date: 17 February 2026
Orbit: 618 x 649 km, 48.4° (Epoch: 9 March)

Event Time Altitude Azimuth Distance (km) Brightness Sun altitude
Rises 12:49:02 0° 200° (SSW) 2,909 10.5 4.8°
Reaches altitude 10° 12:51:47 10° 185° (S) 1,999 9.9 5.3°
Maximum altitude 12:55:15 21° 135° (SE) 1,392 10.2 5.9°
Drops below altitude 10° 12:58:44 10° 86° (E) 1,993 11.0 6.5°
Sets 13:01:28 0° 71° (ENE) 2,898 11.3 7.0°
